Location: Newark
(45.5167°N, 11.1667°E)
Time: 18:23:58
(UTC+00:00)

Explorer 7 - Pass Details

Date: 18 December 2019
Orbit: 485 x 679 km, 50.3° (Epoch: 19 January)

Event Time Altitude Azimuth Distance (km) Brightness Sun altitude
Rises 17:10:01 0° 294° (WNW) 3,025 11.4 -16.1°
Reaches altitude 10° 17:12:23 10° 295° (WNW) 2,117 10.5 -16.5°
Maximum altitude 17:17:19 90° 209° (SSW) 683 7.2 -17.4°
Enters shadow 17:20:14 25° 116° (ESE) 1,362 8.4 -17.9°
Drops below altitude 10° 17:22:12 10° 117° (ESE) 2,091 - -18.2°
Sets 17:24:31 0° 117° (ESE) 2,986 - -18.6°
